Regional Weather Roundup
Issued by NWS Newport/Morehead, NC

Current Version | Previous Version | Graphics & Text | Print | Product List | Glossary On
Versions: 1 2 3 4 5 6 7 8 9 10 11 12 13 14 15 16 17 18 19 20 21 22 23 24 25 26 27 28 29 30 31 32 33 34 35 36 37 38 39 40 41 42 43 44 45 46 47 48 49 50
000 ASUS42 KMHX 180414 RWRMHX WEATHER ROUNDUP FOR EASTERN NORTH CAROLINA NATIONAL WEATHER SERVICE NEWPORT/MOREHEAD CITY NC 1100 PM EST FRI NOV 17 2017 NOTE: "FAIR" INDICATES FEW OR NO CLOUDS BELOW 12,000 FEET WITH NO SIGNIFICANT WEATHER AND/OR OBSTRUCTIONS TO VISIBILITY NCZ015>017-031-032-045>047-102-103-180500- NORTH COAST CITY SKY/WX TMP DP RH WIND PRES REMARKS EDENTON CLEAR 35 34 94 CALM 30.18R ELIZABETH CITY CLEAR 36 36 100 SW3 30.17S KITTY HAWK CLEAR 45 37 72 CALM 30.15S MANTEO CLEAR 36 35 96 CALM 30.17S $$ NCZ045>047-081-094-103-104-180500- CENTRAL COAST CITY SKY/WX TMP DP RH WIND PRES REMARKS FRISCO CLEAR 39 38 96 CALM 30.16S $$ NCZ095-097-098-100-101-180500- SOUTHERN COAST CITY SKY/WX TMP DP RH WIND PRES REMARKS BEAUFORT CLEAR 38 37 97 CALM 30.17R CEDAR ISLAND NOT AVBL JACKSONVILLE NOT AVBL PINEY ISLAND NOT AVBL WILMINGTON CLEAR 40 38 93 CALM 30.17S $$ NCZ011>013-027>030-043-044-078>080-089-090>093-098-180500- COASTAL PLAIN CITY SKY/WX TMP DP RH WIND PRES REMARKS AHOSKIE CLEAR 31 31 100 CALM 30.18R CLINTON CLEAR 36 36 99 CALM 30.18S ELIZABETHTOWN NOT AVBL GOLDSBORO CLEAR 37 34 89 CALM 30.15S GREENVILLE FOG 34 34 100 CALM 30.18F VSB 1/4 HAVELOCK NOT AVBL KENANSVILLE CLEAR 32 32 100 CALM 30.18R FOG KINSTON CLEAR 33 32 96 CALM 30.18 NEW BERN CLEAR 35 35 100 CALM 30.18S RICHLANDS CLEAR 32 32 100 CALM 30.18R ROCKY MOUNT CLEAR 34 34 100 CALM 30.17S WASHINGTON CLEAR 35 34 95 CALM 30.18R WHITEVILLE CLEAR 39 37 93 CALM 30.16F $$ AMZ130-135-150-152-154-156-158-170-250-252-270-ANZ085-086-088-633-658-670-180500- MARINE OBSERVATIONS STATION/POSITION TIME TEMP WIND PRES WAVE SWELL AIR SEA DIR/SP/G HT/PER HT/PER (UTC) (F) (DEG/KT/KT) (MB) (FT/S) (FT/S) CHESAPEAKE LIGHT NOT AVBL 64 E VA BEACH 0350 53 60 330/ 6/ 10 1021.3 4/ 7 3/ 7 DUCK NOT AVBL 2 E DUCK 0400 59 N/A 3/13 2/13 OREGON INLET NOT AVBL 13E OREGON INLT 0348 62 N/A 4/12 2/12 HATTERAS CG NOT AVBL DIAMOND BUOY 0400 54 64 50/ 6/ 8 1021.3 CAPE LOOKOUT 0400 53 330/ 4/ 5 1021.5 BEAUFORT LAB NOT AVBL 30 SE NEW RVR IN 0308 56 70 100/ 6/ 10 1021.4 30 SE NEW RVR IN 0400 70 N/A 3/13 2/13 27 SE WRIGHTSVLE 0308 58 68 110/ 6/ 12 1021.2 5 SE WRIGHTSVLE 0308 57 64 130/ 4/ 8 1021.2 225 S CAPE HAT 0350 68 77 60/ 12/ 17 1019.0 7/11 7/11 41 SE CHARLESTON 0400 65 75 130/ 8/ 10 1020.3 $$

USA.gov is the U.S. government's official web portal to all federal, state and local government web resources and services.